Location: Limerick
(52.6650°N, 8.6230°W)
Time: 19:50:51
(UTC+00:00)

Envisat - Visible Passes

Search period start: 18 January 2018 00:00
Search period end: 28 January 2018 00:00
Orbit: 764 x 766 km, 98.2° (Epoch: 18 January)

Date Brightness Start Highest point End Pass type
(mag) Time Alt. Az. Time Alt. Az. Time Alt. Az.
18 Jan 4.2 18:22:36 18° ENE 18:23:54 20° NE 18:27:33 10° N visible
18 Jan 3.0 20:02:47 75° NW 20:02:47 75° NW 20:07:30 10° NNW visible
18 Jan 5.7 21:42:59 14° WNW 21:42:59 14° WNW 21:44:58 10° NW visible
19 Jan 4.8 17:45:57 10° ENE 17:47:45 12° NE 17:49:32 10° NNE visible
19 Jan 3.0 19:25:25 52° E 19:25:42 52° ENE 19:30:39 10° N visible
19 Jan 4.9 21:05:36 27° W 21:05:36 27° W 21:09:22 10° NW visible
20 Jan 6.1 07:25:46 10° ENE 07:27:26 11° E 07:29:08 10° ESE visible
20 Jan 3.8 18:48:01 26° E 18:49:14 29° ENE 18:53:34 10° N visible
20 Jan 3.7 20:28:11 52° W 20:28:11 52° W 20:33:01 10° NNW visible
21 Jan 4.4 18:10:36 13° E 18:12:55 17° NE 18:16:09 10° NNE visible
21 Jan 2.8 19:50:48 74° SE 19:51:14 82° ENE 19:56:21 10° NNW visible
21 Jan 5.5 21:30:59 18° W 21:30:59 18° W 21:34:18 10° NW visible
22 Jan 5.8 07:49:53 10° NE 07:53:26 19° E 07:56:59 10° SE visible
22 Jan 3.3 19:13:23 37° ESE 19:14:37 44° ENE 19:19:26 10° N visible
22 Jan 4.5 20:53:34 33° W 20:53:47 33° W 20:58:23 10° NNW visible
23 Jan 4.0 18:35:58 18° E 18:38:12 25° ENE 18:42:17 10° N visible
23 Jan 3.3 20:16:09 57° SW 20:16:51 64° WSW 20:21:56 10° NNW visible
23 Jan 5.9 21:56:19 11° W 21:56:55 11° W 21:58:06 10° WNW visible
24 Jan 4.6 17:59:12 10° E 18:01:57 15° NE 18:04:42 10° NNE visible
24 Jan 2.9 19:38:43 46° SE 19:40:07 68° ENE 19:45:11 10° N visible
24 Jan 5.2 21:18:54 21° WSW 21:19:38 21° W 21:23:30 10° NW visible
25 Jan 5.9 07:39:10 10° NE 07:42:09 15° E 07:45:07 10° ESE visible
25 Jan 3.5 19:01:17 24° ESE 19:03:33 37° ENE 19:08:12 10° N visible
25 Jan 4.2 20:41:28 35° SW 20:42:34 40° W 20:47:22 10° NNW visible
26 Jan 4.2 18:23:50 12° E 18:27:11 21° NE 18:30:58 10° N visible
26 Jan 3.0 20:04:01 43° S 20:05:42 78° WSW 20:10:49 10° NNW visible
26 Jan 5.7 21:44:12 12° WSW 21:45:36 13° W 21:48:02 10° NW visible
27 Jan 4.7 17:48:53 10° ENE 17:50:59 13° NE 17:53:06 10° NNE visible
27 Jan 3.0 19:26:35 29° SE 19:29:00 57° ENE 19:34:00 10° N visible
27 Jan 4.9 21:06:45 22° WSW 21:08:23 26° W 21:12:37 10° NW visible
